This demonstration page uses our WeatherBlox Daily Observations layout. Learn more.

Left ArrowRight Arrow

40.92945, -100.16068

Hourly Observations for October 1, 2018

Temp ( °F °C ) Dew Point ( °F °C ) Humidity (%) Winds ( mph kmh ) Pressure ( in mb ) Visibility ( mi km ) Precip ( " mm )
12:15 am 00:15 Cloudy with Mist and Fog 47 8.2 45 7.3 94 94 ENE 8 13 30.15 1021 4 6.43736 0 0
12:35 am 00:35 Cloudy with Mist and Fog 47 8.2 45 7.2 93 93 E 8 13 30.15 1021 4 6.43736 0 0
12:55 am 00:55 Cloudy with Mist and Fog 47 8.3 45 7.3 93 93 E 6 9 30.15 1021 4 6.43736 0 0
1:15 am 01:15 Cloudy with Mist and Fog 47 8.2 45 7.3 94 94 E 9 15 30.15 1021 4 6.43736 0 0
1:35 am 01:35 Cloudy with Mist and Fog 47 8.1 45 7.1 93 93 E 10 17 30.12 1020 4 6.43736 0 0
1:55 am 01:55 Cloudy with Mist and Fog 47 8.1 45 7.2 94 94 E 6 9 30.12 1020 4 6.43736 0 0
2:15 am 02:15 Cloudy 47 8.2 45 7.2 93 93 E 7 11 30.12 1020 10 16.0934 0 0
2:35 am 02:35 Cloudy 47 8.2 45 7.2 93 93 E 7 11 30.12 1020 10 16.0934 0 0
2:55 am 02:55 Cloudy 47 8.2 45 7.1 93 93 E 7 11 30.12 1020 10 16.0934 0 0
3:15 am 03:15 Cloudy with Mist and Fog 47 8.1 45 7.1 93 93 E 8 13 30.12 1020 3 4.82802 0 0
3:35 am 03:35 Cloudy with Mist and Fog 47 8.1 45 7.2 94 94 E 8 13 30.12 1020 3 4.82802 0 0
3:55 am 03:55 Cloudy with Mist and Fog 47 8.1 45 7.2 94 94 E 6 9 30.12 1020 2 3.21868 0 0
4:15 am 04:15 Cloudy with Mist and Fog 46 8 45 7.2 95 95 ENE 6 9 30.09 1019 2 3.21868 0 0
4:35 am 04:35 Cloudy with Mist and Fog 46 8 45 7.2 95 95 E 6 9 30.09 1019 2 3.21868 0 0
4:55 am 04:55 Cloudy with Light Rain 46 8 45 7.2 95 95 ENE 7 11 30.09 1019 1.75 2.816345 0 0
5:15 am 05:15 Cloudy with Light Rain 47 8.1 45 7.3 95 95 NNE 5 7 30.12 1020 2.5 4.02335 0 0
5:35 am 05:35 Cloudy with Drizzle 47 8.1 45 7.4 95 95 NNE 5 7 30.12 1020 3 4.82802 0 0
5:55 am 05:55 Cloudy with Drizzle 47 8.2 46 7.5 95 95 N 6 9 30.12 1020 3 4.82802 0.01 0.254
6:15 am 06:15 Cloudy with Drizzle 47 8.2 46 7.5 95 95 N 6 9 30.12 1020 4 6.43736 0 0
6:35 am 06:35 Cloudy with Drizzle 47 8.2 46 7.5 95 95 NNW 7 11 30.15 1021 5 8.0467 0 0
6:55 am 06:55 Cloudy with Drizzle 47 8.2 46 7.5 95 95 NNW 7 11 30.15 1021 5 8.0467 0.01 0.254
7:15 am 07:15 Cloudy with Drizzle 47 8.3 46 7.5 95 95 N 5 7 30.15 1021 5 8.0467 0 0
7:35 am 07:35 Cloudy 47 8.3 46 7.5 95 95 N 6 9 30.15 1021 7 11.26538 0 0
7:55 am 07:55 Cloudy with Mist and Fog 47 8.4 46 7.5 94 94 N 6 9 30.15 1021 5 8.0467 0 0
8:15 am 08:15 Cloudy 47 8.5 46 7.5 94 94 NNE 3 6 30.15 1021 10 16.0934 0 0
8:35 am 08:35 Cloudy 47 8.6 46 7.5 93 93 ENE 3 6 30.15 1021 10 16.0934 0 0
8:55 am 08:55 Cloudy 48 8.7 46 7.5 92 92 NNE 5 7 30.15 1021 10 16.0934 0 0
9:15 am 09:15 Cloudy 48 9 46 7.7 92 92 NNE 7 11 30.12 1020 10 16.0934 0 0
9:35 am 09:35 Cloudy 49 9.3 46 7.6 89 89 ENE 8 13 30.12 1020 10 16.0934 0 0
9:55 am 09:55 Cloudy 49 9.6 46 7.6 87 87 ENE 6 9 30.12 1020 10 16.0934 0 0
10:15 am 10:15 Cloudy 50 9.9 46 7.6 86 86 E 6 9 30.12 1020 10 16.0934 0 0
10:35 am 10:35 Cloudy 51 10.3 46 7.8 85 85 ESE 6 9 30.12 1020 10 16.0934 0 0
10:55 am 10:55 Cloudy 51 10.3 46 7.5 83 83 Calm 30.12 1020 10 16.0934 0 0
11:15 am 11:15 Cloudy 51 10.5 46 7.6 82 82 Calm 30.12 1020 10 16.0934 0 0
11:35 am 11:35 Cloudy 51 10.7 46 8 84 84 W 3 6 30.15 1021 10 16.0934 0 0
11:55 am 11:55 Cloudy 51 10.7 46 7.8 82 82 WNW 3 6 30.15 1021 10 16.0934 0 0
12:15 pm 12:15 Cloudy 52 11.1 47 8.2 82 82 WSW 3 6 30.09 1019 10 16.0934 0 0
12:35 pm 12:35 Cloudy 52 11.3 47 8.2 81 81 WNW 7 11 30.09 1019 10 16.0934 0 0
12:55 pm 12:55 Cloudy 54 12 47 8.4 79 79 WNW 7 11 30.09 1019 10 16.0934 0 0
1:15 pm 13:15 Cloudy 54 12.3 47 8.6 78 78 NW 9 15 30.09 1019 10 16.0934 0 0
1:35 pm 13:35 Cloudy 54 12.3 47 8.5 78 78 WNW 7 11 30.09 1019 10 16.0934 0 0
1:55 pm 13:55 Cloudy 55 12.9 48 8.9 77 77 NW 8 13 30.09 1019 10 16.0934 0 0
2:15 pm 14:15 Cloudy 56 13.3 48 9 75 75 NNW 8 13 30.09 1019 10 16.0934 0 0
2:35 pm 14:35 Cloudy 57 14 49 9.2 73 73 WNW 8 13 30.09 1019 10 16.0934 0 0
2:55 pm 14:55 Mostly Cloudy 58 14.7 48 9 69 69 N 7 11 30.06 1018 10 16.0934 0 0
3:15 pm 15:15 Partly Cloudy 60 15.4 49 9.2 67 67 N 7 11 30.03 1017 10 16.0934 0 0
3:35 pm 15:35 Partly Cloudy 60 15.8 49 9.2 65 65 WNW 6 9 30.03 1017 10 16.0934 0 0
3:55 pm 15:55 Cloudy 60 15.5 48 9 65 65 Calm 30.03 1017 7 11.26538 0 0
4:15 pm 16:15 Cloudy with Haze 60 15.6 48 9 65 65 NE 6 9 30.03 1017 5 8.0467 0 0
4:35 pm 16:35 Cloudy 60 15.7 49 9.4 66 66 ENE 7 11 30.03 1017 10 16.0934 0 0
4:55 pm 16:55 Cloudy 60 15.4 49 9.2 67 67 ESE 7 11 30.03 1017 10 16.0934 0 0
5:15 pm 17:15 Cloudy 59 15.1 49 9.2 68 68 ENE 6 9 30.03 1017 10 16.0934 0 0
5:35 pm 17:35 Cloudy 59 15 48 9.1 68 68 E 5 7 30.03 1017 10 16.0934 0 0
5:55 pm 17:55 Cloudy 58 14.7 49 9.2 70 70 E 6 9 30.03 1017 10 16.0934 0 0
6:15 pm 18:15 Mostly Cloudy 58 14.6 49 9.2 70 70 E 6 9 30.03 1017 10 16.0934 0 0
6:35 pm 18:35 Partly Cloudy 57 14.1 48 9 72 72 ENE 7 11 30.03 1017 10 16.0934 0 0
6:55 pm 18:55 Sunny 56 13.6 48 9.1 74 74 E 6 9 30.06 1018 10 16.0934 0 0
7:15 pm 19:15 Sunny 55 13 48 9 77 77 E 6 9 30.06 1018 10 16.0934 0 0
7:35 pm 19:35 Clear 54 12.4 48 9 80 80 E 5 7 30.09 1019 10 16.0934 0 0
7:55 pm 19:55 Clear 54 12.1 48 9 82 82 E 7 11 30.09 1019 10 16.0934 0 0
8:15 pm 20:15 Clear 53 11.5 48 8.8 84 84 E 6 9 30.09 1019 10 16.0934 0 0
8:35 pm 20:35 Clear 52 11.2 48 8.7 85 85 E 6 9 30.09 1019 10 16.0934 0 0
8:55 pm 20:55 Clear 51 10.8 47 8.5 86 86 E 6 9 30.12 1020 10 16.0934 0 0
9:35 pm 21:35 Clear 51 10.7 47 8.6 87 87 E 7 11 30.12 1020 10 16.0934 0 0
9:55 pm 21:55 Clear 51 10.7 47 8.6 87 87 E 7 11 30.12 1020 10 16.0934 0 0
10:15 pm 22:15 Clear 51 10.7 47 8.6 87 87 E 7 11 30.12 1020 10 16.0934 0 0
10:35 pm 22:35 Clear 51 10.6 47 8.6 88 88 ESE 8 13 30.12 1020 10 16.0934 0 0
10:55 pm 22:55 Clear 51 10.6 47 8.6 88 88 ESE 6 9 30.12 1020 10 16.0934 0 0
11:15 pm 23:15 Clear 51 10.5 47 8.5 88 88 ESE 6 9 30.12 1020 10 16.0934 0 0
11:35 pm 23:35 Partly Cloudy 51 10.5 48 8.7 89 89 ESE 8 13 30.12 1020 10 16.0934 0 0
11:55 pm 23:55 Mostly Cloudy 51 10.5 47 8.6 88 88 ESE 8 13 30.12 1020 10 16.0934 0 0

Powered by AerisWeather